Theta_e
312 308 309 309 309 313 313 314 315 324 324 327 328 330 329 328 326 324 324 325 323 323 323 331 340 340 342 341 341 341 338 335 336 336 355 355 355 353 350 351 351 354 354 353
308 309 309 311 312 313 313 313 314 318 327 328 328 330 328 327 326 324 323 324 322 322 325 329 330 332 334 338 338 337 335 334 336 340 346 357 356 355 354 351 352 353 354 354
309 310 311 312 312 314 314 313 314 325 325 325 329 331 329 326 323 321 321 322 322 322 320 329 330 332 332 333 334 335 335 337 339 346 353 357 358 357 354 353 353 353 352 351
310 311 312 312 313 314 314 313 315 323 323 328 324 327 321 322 318 317 317 316 320 320 323 328 333 340 342 343 343 343 345 346 347 342 339 349 350 350 350 349 349 350 350 351
312 312 313 313 314 314 314 313 313 317 320 322 321 319 314 320 320 317 316 315 317 319 328 331 338 341 343 342 341 340 340 342 344 344 346 346 347 345 340 345 348 348 348 346
312 312 312 312 312 313 313 313 320 318 317 322 320 323 318 316 319 319 316 315 318 320 328 335 339 339 338 337 336 335 333 332 332 332 334 337 336 332 332 333 337 338 339 341
314 313 311 312 312 312 313 314 322 322 321 325 317 316 319 315 317 318 317 317 320 328 330 330 332 333 332 331 330 329 329 328 327 326 324 324 324 324 326 327 328 327 328 328
311 311 311 312 311 310 311 318 321 323 321 317 317 321 319 317 317 317 318 321 325 328 327 326 325 327 328 328 328 327 327 326 325 323 323 322 322 321 321 321 321 322 322 323
312 312 313 313 313 311 314 316 315 321 322 319 323 325 323 326 322 319 322 324 326 327 325 324 323 325 327 327 327 326 325 324 323 321 319 319 318 318 318 318 318 319 319 319
313 313 317 316 312 312 312 315 322 322 323 323 330 331 327 329 329 320 323 323 321 322 322 322 323 325 326 327 326 324 324 322 321 319 318 317 317 317 317 316 316 316 315 315
314 318 320 319 317 313 316 317 317 318 322 326 329 329 329 327 328 323 321 322 320 319 321 323 322 324 324 324 323 321 321 321 319 318 317 316 316 315 315 315 314 314 313 313
316 318 321 321 320 315 316 315 317 323 328 331 330 330 330 329 328 324 323 322 318 317 317 319 320 323 324 323 322 320 318 318 317 316 316 316 315 315 315 314 313 312 312 312
317 321 324 322 320 319 320 320 318 320 324 332 332 332 331 331 331 329 327 322 318 316 317 317 316 320 322 322 320 318 317 317 316 316 316 315 315 314 313 312 312 311 311 311
324 323 320 324 323 325 328 326 324 322 325 332 332 331 334 332 331 331 330 327 321 317 317 314 313 313 316 316 317 316 316 316 316 316 315 314 314 313 313 312 311 310 310 310
321 326 328 331 330 329 328 326 324 325 325 326 332 332 332 331 330 329 329 329 326 317 316 314 312 311 314 316 316 316 316 315 314 314 313 313 313 312 312 310 309 309 308 307
322 328 328 331 327 328 327 326 325 324 324 326 328 326 325 326 327 325 327 329 324 316 317 315 314 313 314 316 316 315 314 314 313 313 313 313 312 311 309 308 307 306 306 305
324 325 323 331 330 326 327 325 320 322 322 321 324 323 324 325 324 321 320 318 317 316 315 314 313 313 314 315 315 314 313 313 313 313 312 310 308 307 306 305 305 304 303 302
321 322 323 327 322 327 322 320 319 322 321 319 320 323 320 318 317 315 313 313 313 313 312 311 311 312 313 313 313 313 313 312 310 307 305 304 304 303 302 302 301 300 299 298
320 322 324 326 322 320 320 321 321 321 320 317 320 319 317 315 314 314 314 312 311 311 311 311 309 308 307 308 309 308 305 304 303 302 301 300 299 298 298 297 297 296 295 294
322 321 323 322 324 321 321 319 319 319 321 317 317 317 316 315 316 314 312 310 308 305 305 306 304 303 302 303 303 302 300 299 298 298 297 297 296 295 294 294 293 292 292 292
325 323 322 323 322 324 323 324 320 320 320 316 314 313 313 314 312 310 306 305 304 303 303 303 301 299 298 298 299 297 297 296 296 295 294 293 293 292 291 290 290 291 292 292
323 322 321 322 324 325 322 322 323 317 313 312 311 310 309 307 305 303 302 302 302 301 300 300 299 297 296 296 295 294 294 294 293 292 291 290 290 289 289 289 290 291 291 291
322 318 321 319 322 318 318 316 313 312 311 309 307 306 304 303 302 302 301 300 299 298 297 296 296 295 294 294 293 292 292 292 290 289 288 288 287 288 289 289 289 289 290 290
322 319 321 319 317 315 314 312 310 308 306 304 302 302 302 301 302 300 299 297 297 296 295 295 294 294 293 292 291 291 289 289 288 287 286 286 287 288 288 288 288 289 289 290
318 318 318 317 315 313 312 309 307 305 304 303 302 302 302 301 300 298 297 296 296 295 294 294 293 293 292 290 289 288 287 287 286 285 285 287 287 287 287 288 288 288 289 290
316 317 316 315 313 313 310 307 305 303 303 303 302 301 300 299 298 297 296 295 294 293 293 293 292 290 289 287 287 286 286 285 285 285 286 286 287 287 288 288 288 289 290 291
Wind_Speed
6 5 14 11 6 2 1 4 9 3 9 6 7 6 6 8 2 6 7 6 6 4 3 19 25 25 28 30 31 35 36 43 32 21 25 31 30 30 30 31 27 24 23 24
5 10 7 7 8 8 8 6 7 7 7 6 6 8 8 9 7 7 8 7 7 4 5 5 25 27 24 28 26 30 34 32 29 34 33 25 29 28 28 27 26 26 27 27
6 4 10 9 9 11 10 8 6 4 7 4 7 5 7 5 5 5 8 6 5 9 8 8 10 24 29 24 20 14 13 16 11 11 19 28 23 25 20 20 20 24 31 27
5 9 15 13 13 12 13 6 11 8 4 5 7 5 6 7 11 8 11 8 8 7 2 6 10 17 26 27 24 21 17 12 6 4 11 10 11 4 4 3 4 9 12 23
9 12 13 13 15 14 9 8 9 9 7 4 2 3 7 10 13 12 13 9 8 9 9 10 10 19 23 25 25 24 21 17 14 13 11 12 13 15 14 14 9 4 3 10
9 3 9 14 11 13 14 4 4 2 5 6 9 8 6 6 18 16 7 9 10 8 7 11 18 21 24 26 26 23 24 22 20 21 21 20 20 20 22 17 13 12 11 5
10 16 9 6 7 5 4 6 1 1 3 5 11 5 12 8 13 15 14 10 8 14 10 12 12 15 21 27 26 23 21 19 18 21 22 22 22 22 22 19 17 16 17 20
7 6 14 10 10 10 7 8 5 5 2 7 2 7 13 10 14 7 9 8 15 13 12 12 11 17 23 26 21 19 16 15 15 17 18 18 19 20 19 18 17 18 17 17
9 8 5 13 13 12 5 5 9 6 1 2 3 5 8 13 15 12 13 15 15 15 12 12 10 20 25 23 19 16 14 13 12 13 14 16 17 18 18 18 18 18 18 20
4 4 4 5 8 6 10 7 5 2 3 4 1 4 5 10 17 8 18 18 11 8 9 8 9 20 24 21 19 15 13 12 10 10 12 14 15 17 18 20 22 23 24 25
3 4 6 4 2 8 3 4 6 4 4 5 3 5 4 7 13 5 5 13 11 10 11 11 8 16 23 22 20 17 14 13 11 11 11 10 11 13 15 18 21 23 26 27
7 4 4 5 5 4 6 8 7 5 3 2 2 5 4 6 10 7 4 10 7 9 8 8 10 18 19 18 16 14 12 18 14 11 8 7 8 11 14 18 20 22 24 26
5 1 3 8 6 6 6 3 5 5 4 4 4 3 1 5 6 8 9 7 8 8 10 9 7 10 19 20 17 16 16 16 12 8 6 5 6 8 11 14 18 20 22 23
10 4 8 7 4 2 4 7 5 5 4 6 6 9 9 14 9 6 10 11 5 8 7 6 6 8 15 16 17 15 14 10 7 5 4 5 7 10 14 16 18 18 16 16
6 4 3 9 9 3 2 5 5 3 7 4 7 12 10 9 9 10 3 10 17 6 10 6 6 6 9 10 11 11 9 7 5 5 6 7 9 12 14 13 11 11 15 16
3 3 4 6 7 7 3 3 4 4 8 7 8 4 4 5 11 10 4 5 15 10 14 11 8 9 9 8 8 8 5 3 5 7 8 11 14 13 11 12 14 17 20 24
4 6 4 2 1 4 4 4 3 4 2 8 5 8 11 8 9 9 9 11 11 11 8 8 7 7 8 6 4 2 2 4 4 7 10 11 9 10 12 16 20 25 28 32
6 5 3 3 2 5 5 3 6 14 13 10 18 18 17 14 12 8 5 9 9 8 7 5 4 6 12 11 9 7 9 10 12 15 15 16 17 19 21 24 28 31 33 35
10 5 4 4 3 1 2 3 6 16 9 9 18 19 19 16 18 11 7 7 6 6 4 7 17 21 24 22 16 17 19 18 18 19 19 20 22 25 29 30 31 32 33 37
8 8 6 3 5 4 5 5 12 11 6 6 13 10 6 3 9 1 2 8 11 19 21 21 23 25 28 24 21 21 20 19 20 20 20 22 25 27 27 26 33 33 29 26
4 3 6 4 3 2 1 5 1 6 6 5 12 8 10 13 5 4 10 12 20 20 22 21 25 23 21 20 20 21 19 18 18 21 24 25 27 29 28 30 29 26 26 23
4 5 3 4 3 3 3 5 7 9 5 10 9 9 14 12 10 12 12 12 16 17 20 20 19 18 19 20 21 17 17 18 18 23 23 24 28 30 28 26 23 21 21 21
3 5 5 3 3 3 10 18 11 13 14 8 11 9 13 11 12 11 10 10 13 15 15 18 17 14 16 17 18 18 18 17 21 23 23 27 29 26 23 21 21 20 18 18
4 2 6 6 6 14 16 15 14 15 14 11 11 12 14 13 11 11 10 8 11 14 14 17 18 16 15 18 18 17 20 21 24 25 27 28 24 22 21 20 18 19 18 18
1 4 8 13 12 15 13 13 13 14 15 16 14 13 13 15 11 10 8 8 13 15 18 19 19 17 17 21 20 20 23 23 25 25 24 21 19 20 21 20 20 20 23 21
3 11 5 4 6 12 7 7 11 14 12 12 15 14 13 16 10 12 8 13 14 15 17 17 18 18 19 21 22 23 24 24 24 21 19 20 21 20 20 20 26 23 22 24
Wind_Direction
182 179 206 205 190 272 292 183 211 237 199 155 194 186 195 252 238 250 259 249 238 273 185 140 165 172 190 195 201 200 199 210 224 249 234 231 230 231 234 238 242 245 247 241
123 223 205 199 173 208 235 229 237 219 230 152 175 196 195 233 254 241 248 208 212 192 139 157 135 155 174 190 205 208 210 225 236 258 248 241 235 235 234 237 237 246 248 250
183 197 200 205 208 213 229 224 221 199 207 220 151 258 229 239 243 231 255 255 216 208 205 189 131 127 128 132 148 166 202 225 234 241 247 240 242 240 245 256 257 257 250 247
229 236 196 214 221 203 232 185 232 220 174 213 165 242 246 220 240 208 232 217 233 226 223 161 130 115 113 115 114 114 113 121 99 214 218 212 213 184 51 69 294 266 258 245
218 195 204 210 213 209 227 213 222 224 224 115 263 133 255 234 249 238 230 213 214 214 159 143 121 116 107 102 95 93 90 86 86 86 84 83 76 79 72 67 56 57 252 248
229 204 192 214 226 211 223 198 58 278 226 219 213 185 250 196 221 238 220 216 196 142 150 115 121 116 107 101 93 85 78 72 73 76 71 73 71 67 65 61 57 47 41 14
227 243 238 189 206 229 194 116 226 241 141 209 224 171 233 221 223 217 208 196 170 134 137 128 123 118 114 102 93 89 83 73 65 61 60 61 61 60 60 56 52 46 42 35
192 253 223 205 194 183 192 148 151 152 206 221 285 205 245 246 241 203 162 156 139 144 145 139 136 127 113 109 109 107 101 89 71 65 62 57 51 48 50 45 37 34 28 23
171 226 192 210 219 163 161 152 179 118 6 68 263 297 323 4 351 149 143 135 143 146 145 139 132 126 126 127 126 119 109 96 78 63 52 44 38 32 30 27 23 22 13 5
268 206 227 231 179 206 156 170 100 14 156 216 280 279 248 353 344 240 154 146 143 152 126 130 134 140 140 135 131 132 126 114 99 75 61 46 33 28 20 10 9 1 356 351
161 92 290 67 146 180 145 125 66 103 146 184 161 262 208 351 332 281 183 143 141 143 144 154 160 138 135 137 138 136 133 137 119 103 80 62 40 22 8 2 356 350 344 342
178 166 194 211 309 236 153 175 136 125 174 103 171 265 307 359 316 60 94 128 122 143 153 136 136 138 146 152 159 155 136 135 129 118 97 61 37 20 5 354 349 345 338 332
178 304 81 335 3 356 96 134 130 119 94 184 108 285 324 256 301 13 33 7 112 105 119 130 122 143 165 177 173 161 142 137 138 124 98 64 34 5 358 351 344 339 335 331
100 127 155 184 182 231 33 27 61 101 100 172 172 178 212 208 185 24 6 351 322 108 114 110 130 148 162 165 157 151 148 135 122 108 72 26 356 347 342 335 339 337 341 351
105 104 94 138 103 41 87 57 8 110 162 136 182 179 186 165 138 110 60 320 320 48 128 136 97 90 106 112 114 115 111 102 72 28 360 353 342 333 335 338 336 332 328 333
30 122 74 30 63 44 305 36 37 119 108 100 144 90 138 141 120 102 97 176 272 64 73 78 76 73 76 86 97 103 87 52 357 346 342 333 331 337 343 346 341 336 333 328
81 126 92 58 29 54 302 211 49 314 85 140 165 157 130 114 108 122 170 144 99 81 72 66 60 69 82 91 101 116 335 327 335 351 359 7 12 9 350 338 332 331 330 325
117 90 80 137 75 143 246 150 78 73 36 76 91 117 115 111 110 125 111 96 90 89 85 77 56 11 7 356 348 1 31 42 46 43 31 13 0 350 340 334 331 327 325 321
129 101 84 130 122 225 80 33 129 108 35 15 105 116 121 116 92 57 56 73 90 87 61 31 49 64 51 47 58 67 53 42 36 27 14 360 349 341 335 332 326 322 318 314
64 108 103 112 145 184 227 89 116 94 58 15 88 93 106 151 84 205 36 52 52 64 58 62 63 56 49 38 36 41 31 23 19 4 353 342 336 334 330 322 316 316 316 309
71 34 120 109 102 295 221 305 160 92 181 131 102 103 91 89 94 92 74 58 63 59 54 64 60 57 45 31 23 27 13 11 349 341 337 333 330 326 323 319 320 322 315 312
123 112 125 114 116 216 185 23 95 143 114 109 87 91 89 90 84 74 71 66 58 51 48 52 58 51 38 24 16 13 1 346 339 335 333 330 327 326 324 326 321 316 310 308
47 172 138 144 189 331 78 109 113 115 108 100 97 97 97 90 82 79 75 68 62 57 48 41 43 40 26 22 11 6 357 348 340 336 331 327 327 330 331 320 314 311 311 309
111 180 121 82 41 89 97 90 93 96 100 99 94 94 86 87 87 77 69 59 55 46 40 32 25 19 14 12 5 357 344 337 334 331 328 330 329 326 321 316 310 308 308 306
169 96 103 98 107 88 68 88 99 89 90 83 75 80 90 90 78 82 68 55 49 40 30 23 16 6 2 354 350 345 340 337 331 328 326 323 320 318 316 313 309 304 301 293
355 136 129 169 171 112 118 110 98 88 97 98 94 81 73 86 87 77 63 56 52 36 24 19 13 1 354 346 339 339 339 333 329 320 320 319 317 315 313 312 314 316 308 317